This is the latest recevied weather packets stored in our database for station/object KA4YMY. If no packets are shown the sender has not sent any weather packets the latest 10 day(s).
| Time | Temp. | Humidity | Pressure | Rain* | Wind** | Luminosity | Snow |
|---|---|---|---|---|---|---|---|
| 1787781618 | 30° C | 62% | 1015.2 hPa | 0 mm | - | - | - |
| 1787781017 | 30.56° C | 62% | 1015.3 hPa | 0 mm | - | - | - |
| 1787780421 | 30.56° C | 62% | 1015.2 hPa | 0 mm | - | - | - |
| 1787779817 | 30.56° C | 63% | 1015.2 hPa | 0 mm | - | - | - |
| 1787779217 | 30.56° C | 62% | 1015.3 hPa | 0 mm | - | - | - |
| 1787778618 | 30.56° C | 61% | 1015.3 hPa | 0 mm | - | - | - |
| 1787778017 | 30.56° C | 60% | 1015.4 hPa | 0 mm | - | - | - |
| 1787777417 | 30.56° C | 60% | 1015.4 hPa | 0 mm | - | - | - |
| 1787776817 | 30.56° C | 61% | 1015.4 hPa | 0 mm | - | - | - |
| 1787776217 | 30° C | 62% | 1015.5 hPa | 0 mm | - | - | - |
| 1787775617 | 30° C | 60% | 1015.6 hPa | 0 mm | - | - | - |
| 1787775017 | 30.56° C | 61% | 1015.9 hPa | 0 mm | - | - | - |
| 1787774417 | 30.56° C | 60% | 1015.9 hPa | 0 mm | - | - | - |
| 1787773817 | 30.56° C | 61% | 1016 hPa | 0 mm | - | - | - |
| 1787773217 | 30.56° C | 60% | 1016 hPa | 0 mm | - | - | - |
| 1787772617 | 30° C | 62% | 1016.3 hPa | 0 mm | - | - | - |
| 1787772017 | 30° C | 61% | 1016.4 hPa | 0 mm | - | - | - |
| 1787771417 | 30.56° C | 61% | 1016.6 hPa | 0 mm | - | - | - |
| 1787770817 | 30.56° C | 63% | 1016.5 hPa | 0 mm | - | - | - |
| 1787770217 | 30.56° C | 66% | 1016.7 hPa | 0 mm | - | - | - |
| 1787769617 | 30° C | 66% | 1016.6 hPa | 0 mm | - | - | - |
| 1787769017 | 30° C | 66% | 1016.8 hPa | 0 mm | - | - | - |
| 1787768417 | 30° C | 65% | 1016.8 hPa | 0 mm | - | - | - |
| 1787767817 | 29.44° C | 67% | 1016.9 hPa | 0 mm | - | - | - |
| 1787767217 | 30° C | 65% | 1016.9 hPa | 0 mm | - | - | - |
* Rain latest hour (hover to see other rain measurements)
** Current wind speed in m/s (hover to see current wind gust speed)